Location: Bosdarros
(43.2167°N, 0.3667°W)
Time: 01:50:28
(UTC+00:00)

ARIANE 5 R/B - Pass Details

Date: 22 April 2021
Orbit: 620 x 656 km, 98.1° (Epoch: 11 May)

Event Time Altitude Azimuth Distance (km) Brightness Sun altitude
Exits shadow 21:41:37 58° 261° (W) 741 3.0 -25.9°
Drops below altitude 10° 21:45:55 10° 339° (NNW) 2,016 6.1 -26.4°
Sets 21:48:08 0° 343° (NNW) 2,923 7.1 -26.7°
